Find Geely Xingzuo 03 zu 10 xing

NORAD ID: 61020 Int'l Des: 2024-159 Owner: GEESP Country: CN Constellation: geesatcom operational
LEOCIRCULAR

实时位置

正在加载3D地球...

关于 Geely Xingzuo 03 zu 10 xing

正在加载描述...

即将过境

Passes for default location (London). Set your location on the main map for personalized predictions.

高度历史

Loading altitude history...

两行轨道根数

1 61020U 24159K 26105.94755840 .00001013 00000-0 14737-3 0 9996
2 61020 50.0013 11.8618 0003800 234.7749 125.2835 14.84016022 87269
Epoch: Apr 15, 2026 • Age: 11 hours

当前状态

高度 619.4 km
速度 7.55 km/s
星下点 -19.50°S, 137.95°W
发射日期 Sep 5, 2024
运行时间 1.6 years
类型 other

技术详情

分类 Payload
质量 130.00 kg
干质量 130.00 kg
总质量 130.00 kg
长度 1.00 m
直径 0.50 m
跨度 2.00 m
形状 Box + 2 pan
制造商 GWCG
平台类型 GPS100
阶段状态 In Orbit
所有者/国家 GEESP/CN

Most Searched